Notices

What's New in latest Release from April 7th, 2021:

- Updated Glossary, including Speed of Maximum Gust, and Total Hourly Precipitation

- Updated national and regional climate services offices contacts and prices information

- Addition of station inventory lists for 1981-2010, 1971-2000, and 1961-1990 Normals.

If you haven't already, please take our survey and provide feedback about our website: https://eccc.sondage-survey.ca/f/LanguageSelection.aspx?s=442ca660-fcf1-47c0-95a9-59707d6fd709

Hourly Data Report for March 06, 2021

CARBERRY CS
MANITOBA
Current Station Operator: ECCC - MSC

49°54'20.900" N
99°21'26.800" W
383.50 m
5010547
71170
WZE

Download Data

Hourly Data (March 2021)
Hourly Data Report for March 6, 2021
TIME
LST
Temp Definition
°C
Dew Point Definition
°C
Rel Hum Definition
%
Precip. Amount Definition
mm

Wind Dir Definition
10's deg

Wind Spd Definition
km/h
Visibility Definition
km
Stn Press Definition
kPa
Hmdx Definition


Wind Chill Definition


Weather Definition


00:00 0.2 -4.0 73 0.0 13 13   97.85     LegendNANA
01:00 -0.2 -4.0 76 0.0 14 13   97.81   -4 LegendNANA
02:00 0.8 -3.4 73 0.0 15 14   97.74     LegendNANA
03:00 -0.3 -3.4 80 0.0 15 11   97.73   -4 LegendNANA
04:00 -1.3 -3.8 83 0.0 12 10   97.68   -5 LegendNANA
05:00 -0.7 -3.2 83 0.0 16 10   97.62   -4 LegendNANA
06:00 -1.3 -2.7 90 0.0 13 11   97.60   -5 LegendNANA
07:00 -1.7 -2.5 94 0.0 13 11   97.57   -6 LegendNANA
08:00 0.1 -1.3 90 0.0 14 15   97.49     LegendNANA
09:00 1.7 -0.8 83 0.0 15 18   97.45     LegendNANA
10:00 3.3 -0.2 77 0.0 16 20   97.40     LegendNANA
11:00 4.7 0.3 73 0.0 16 25   97.30     LegendNANA
12:00 6.0 0.3 67 0.0 16 27   97.21     LegendNANA
13:00 7.3 -0.1 59 0.0 16 30   97.12     LegendNANA
14:00 7.5 0.2 60 0.0 15 27   97.01     LegendNANA
15:00 8.4 1.2 61 0.0 16 27   96.88     LegendNANA
16:00 8.2 1.4 62 0.0 15 27   96.84     LegendNANA
17:00 7.3 1.5 66 0.0 15 28   96.78     LegendNANA
18:00 6.2 1.2 70 0.0 14 26   96.68     LegendNANA
19:00 5.1 1.4 77 0.0 15 26   96.63     LegendNANA
20:00 4.7 1.3 79 0.0 15 31   96.57     LegendNANA
21:00 4.4 1.5 82 0.0 15 34   96.52     LegendNANA
22:00 4.0 1.3 82 0.0 15 31   96.44     LegendNANA
23:00 3.7 0.4 79 0.0 15 29   96.31     LegendNANA

Notes on Data Quality.

Legend

  • E = Estimated
  • M = Missing
  • NA = Not Available*
  • [empty] = Indicates an unobserved value
Date modified: